Location: Newark
(41.0400°S, 62.7845°W)
Time: 18:14:51
(UTC+00:00)

ISS - Pass Details

Date: 28 October 2021
Orbit: 417 x 423 km, 51.6° (Epoch: 29 November)

Event Time Altitude Azimuth Distance (km) Brightness Sun altitude
Rises 01:16:08 0° 232° (SW) 2,416 1.5 -24.6°
Reaches altitude 10° 01:18:19 10° 225° (SW) 1,545 0.2 -24.9°
Enters shadow 01:20:37 34° 200° (SSW) 741 -2.1 -25.1°
